Torna al catalogo

LANDSAT 7

AttivoScienzaSSO
NORAD 25682·PAYLOAD·🇺🇸 United States

Lanciato Apr 15, 1999 da Vandenberg Space Force Base

Loading…

Prossimi Passaggi (prossime 24 ore)

TLE

AggiornatoSource: Space-Track

Epoca: Sep 14, 2026, 13:52 UTC

1 25682U 99020A   26257.57845811  .00000286  00000-0  63068-4 0  9997
2 25682  97.8637 257.1432 0001544 100.7931 331.9321 14.63980648458923

Traccia LANDSAT 7 in tempo reale con AllMySat

Download on the App Store